Change the Weather History Date:

Saturday, March 30, 2013

  Actual Average (KMBS) Record (KMBS)
Temperature  
Mean Temperature 38 °F 39 °F  
Max Temperature 53 °F 49 °F 72 °F (1998)
Min Temperature 22 °F 30 °F 21 °F (2003)
Degree Days  
Heating Degree Days 28    
Month to date heating degree days  
Since 1 July heating degree days  
Cooling Degree Days 0    
Month to date cooling degree days  
Year to date cooling degree days  
Moisture  
Dew Point 24 °F    
Average Humidity 61    
Maximum Humidity 96    
Minimum Humidity 31    
Precipitation  
Precipitation 0.00 in 0.07 in 0.26 in (1997)
Month to date precipitation 1.98  
Year to date precipitation 5.30  
Snow  
Snow 0.00 in - - ()
Month to date snowfall  
Since 1 July snowfall  
Snow Depth -    
Sea Level Pressure  
Sea Level Pressure 30.08 in    
Wind  
Wind Speed 2 mph (South)    
Max Wind Speed 15 mph    
Max Gust Speed 23 mph    
Visibility 10 miles    
Events      
T = Trace of Precipitation, MM = Missing Value Source: NWS Daily Summary

Daily Weather History Graph

Daily Weather History Graph

Search for Another Location

Airport or City:

Trip Planner

Search our weather history database for the weather conditions in past years. The results will help you decide how hot, cold, wet, or windy it might be!

Date:

Astronomy

Mar. 30, 2013 Rise Set
Actual Time 7:21 AM EDT 8:01 PM EDT
Civil Twilight 6:52 AM EDT 8:30 PM EDT
Nautical Twilight 6:18 AM EDT 9:05 PM EDT
Astronomical Twilight 5:43 AM EDT 9:40 PM EDT
Moon No Moon Rise 9:09 AM EDT (3/30)
Length of Visible Light 13h 37m
Length of Day
12h 39m
Waning Gibbous, 86% of the Moon is Illuminated
Mar 30
Waning Gibbous
Apr 3
Last Quarter
Apr 10
New
Apr 18
First Quarter
Apr 25
Full

Hourly Weather History & Observations

Time (EDT) Temp. Windchill Dew Point Humidity Pressure Visibility Wind Dir Wind Speed Gust Speed Precip Events Conditions
12:14 AM 29.3 °F - 23.4 °F 78% 30.21 in 10.0 mi Calm Calm - N/A   Clear
12:35 AM 29.1 °F - 23.5 °F 80% 30.21 in 10.0 mi Calm Calm - N/A   Clear
12:54 AM 28.2 °F - 23.5 °F 83% 30.21 in 10.0 mi Calm Calm - N/A   Clear
1:13 AM 28.6 °F - 23.5 °F 81% 30.21 in 10.0 mi Calm Calm - N/A   Clear
1:34 AM 27.1 °F - 23.4 °F 86% 30.21 in 10.0 mi Calm Calm - N/A   Clear
1:54 AM 27.5 °F - 23.4 °F 84% 30.20 in 10.0 mi Calm Calm - N/A   Clear
2:13 AM 26.4 °F - 22.6 °F 86% 30.20 in 10.0 mi Calm Calm - N/A   Clear
2:34 AM 26.6 °F - 23.4 °F 88% 30.20 in 10.0 mi Calm Calm - N/A   Clear
2:54 AM 26.6 °F - 23.0 °F 86% 30.20 in 10.0 mi Calm Calm - N/A   Clear
3:13 AM 26.2 °F - 22.6 °F 86% 30.20 in 10.0 mi Calm Calm - N/A   Clear
3:34 AM 25.3 °F - 22.1 °F 87% 30.20 in 10.0 mi Calm Calm - N/A   Clear
3:54 AM 25.3 °F - 22.6 °F 89% 30.20 in 10.0 mi Calm Calm - N/A   Clear
4:13 AM 25.2 °F - 22.5 °F 89% 30.19 in 10.0 mi Calm Calm - N/A   Clear
4:34 AM 24.3 °F - 22.1 °F 91% 30.19 in 10.0 mi Calm Calm - N/A   Clear
4:54 AM 24.4 °F - 22.1 °F 91% 30.19 in 10.0 mi Calm Calm - N/A   Clear
5:13 AM 24.3 °F - 22.6 °F 94% 30.18 in 10.0 mi Calm Calm - N/A   Clear
5:34 AM 23.9 °F - 22.1 °F 93% 30.18 in 10.0 mi Calm Calm - N/A   Clear
5:54 AM 23.5 °F - 22.1 °F 94% 30.18 in 10.0 mi Calm Calm - N/A   Clear
6:13 AM 23.7 °F - 22.6 °F 96% 30.18 in 10.0 mi Calm Calm - N/A   Clear
6:34 AM 23.2 °F - 22.3 °F 96% 30.18 in 10.0 mi Calm Calm - N/A   Clear
6:54 AM 23.0 °F - 21.9 °F 96% 30.18 in 10.0 mi Calm Calm - N/A   Clear
7:14 AM 22.8 °F - 21.7 °F 96% 30.18 in 10.0 mi Calm Calm - N/A   Clear
7:34 AM 23.0 °F - 22.1 °F 96% 30.19 in 10.0 mi Calm Calm - N/A   Clear
7:53 AM 23.2 °F - 22.1 °F 96% 30.19 in 10.0 mi Calm Calm - N/A   Clear
8:14 AM 24.6 °F - 23.4 °F 95% 30.19 in 10.0 mi Calm Calm - N/A   Clear
8:33 AM 26.6 °F - 24.6 °F 92% 30.19 in 10.0 mi Calm Calm - N/A   Clear
8:54 AM 29.7 °F - 26.2 °F 87% 30.19 in 10.0 mi Calm Calm - N/A   Clear
9:14 AM 32.0 °F - 24.8 °F 75% 30.18 in 10.0 mi Calm Calm - N/A   Clear
9:33 AM 33.3 °F - 25.7 °F 74% 30.18 in 10.0 mi Calm Calm - N/A   Clear
9:54 AM 35.8 °F - 26.4 °F 69% 30.18 in 10.0 mi Calm Calm - N/A   Clear
10:14 AM 37.6 °F - 25.9 °F 63% 30.17 in 10.0 mi Calm Calm - N/A   Clear
10:34 AM 39.9 °F - 26.1 °F 58% 30.16 in 10.0 mi Calm Calm - N/A   Clear
10:54 AM 43.3 °F 41.7 °F 25.7 °F 50% 30.14 in 10.0 mi ESE 3.5 mph - N/A   Clear
11:13 AM 44.2 °F 42.7 °F 23.5 °F 44% 30.15 in 10.0 mi SSE 3.5 mph - N/A   Clear
11:34 AM 45.9 °F 42.9 °F 23.4 °F 41% 30.14 in 10.0 mi SE 5.8 mph - N/A   Clear
11:54 AM 47.3 °F - 23.2 °F 39% 30.12 in 10.0 mi SSE 6.9 mph - N/A   Clear
12:14 PM 47.7 °F - 22.8 °F 38% 30.11 in 10.0 mi SSE 6.9 mph - N/A   Clear
12:34 PM 49.1 °F - 23.4 °F 36% 30.11 in 10.0 mi SSE 8.1 mph - N/A   Clear
12:54 PM 49.1 °F - 23.9 °F 37% 30.10 in 10.0 mi SE 4.6 mph - N/A   Clear
1:13 PM 49.5 °F - 25.7 °F 40% 30.09 in 10.0 mi South 6.9 mph - N/A   Clear
1:34 PM 50.5 °F - 25.3 °F 38% 30.09 in 10.0 mi SSE 8.1 mph 16.1 mph N/A   Clear
1:54 PM 50.9 °F - 25.9 °F 38% 30.08 in 10.0 mi SSW 12.7 mph - N/A   Clear
2:13 PM 50.9 °F - 27.1 °F 40% 30.07 in 10.0 mi SSW 11.5 mph 17.3 mph N/A   Clear
2:34 PM 52.3 °F - 28.2 °F 39% 30.06 in 10.0 mi SSW 11.5 mph 16.1 mph N/A   Clear
2:53 PM 52.2 °F - 25.3 °F 35% 30.05 in 10.0 mi SSW 13.8 mph 23.0 mph N/A   Clear
3:14 PM 52.7 °F - 24.3 °F 33% 30.04 in 10.0 mi South 11.5 mph 19.6 mph N/A   Clear
3:34 PM 53.1 °F - 24.3 °F 33% 30.03 in 10.0 mi SSW 11.5 mph 18.4 mph N/A   Clear
3:54 PM 53.1 °F - 24.1 °F 32% 30.02 in 10.0 mi South 12.7 mph 18.4 mph N/A   Clear
4:14 PM 53.2 °F - 23.7 °F 32% 30.00 in 10.0 mi SW 12.7 mph 21.9 mph N/A   Clear
4:34 PM 52.9 °F - 24.3 °F 33% 29.99 in 10.0 mi SW 9.2 mph 19.6 mph N/A   Clear
4:54 PM 53.1 °F - 23.9 °F 32% 29.98 in 10.0 mi South 15.0 mph - N/A   Clear
5:14 PM 52.9 °F - 24.4 °F 33% 29.97 in 10.0 mi South 12.7 mph 20.7 mph N/A   Clear
5:34 PM 52.7 °F - 24.3 °F 33% 29.97 in 10.0 mi SW 10.4 mph 19.6 mph N/A   Clear
5:54 PM 52.7 °F - 23.0 °F 31% 29.96 in 10.0 mi SW 12.7 mph 21.9 mph N/A   Scattered Clouds
6:14 PM 51.8 °F - 22.3 °F 32% 29.96 in 10.0 mi SSW 12.7 mph 18.4 mph N/A   Clear
6:34 PM 51.3 °F - 23.0 °F 33% 29.95 in 10.0 mi SW 9.2 mph - N/A   Clear
6:54 PM 51.1 °F - 23.4 °F 34% 29.95 in 10.0 mi SSW 5.8 mph - N/A   Clear
7:14 PM 50.9 °F - 23.4 °F 34% 29.94 in 10.0 mi SSW 5.8 mph - N/A   Clear
7:34 PM 50.2 °F - 24.4 °F 37% 29.93 in 10.0 mi South 3.5 mph - N/A   Clear
7:54 PM 49.1 °F - 24.6 °F 38% 29.92 in 10.0 mi South 3.5 mph - N/A   Clear
8:14 PM 49.1 °F - 24.6 °F 38% 29.91 in 10.0 mi Calm Calm - N/A   Clear
8:34 PM 48.7 °F - 24.3 °F 38% 29.91 in 10.0 mi Calm Calm - N/A   Clear
8:54 PM 43.9 °F - 28.4 °F 55% 29.91 in 10.0 mi Calm Calm - N/A   Scattered Clouds
9:14 PM 41.5 °F - 27.1 °F 57% 29.91 in 10.0 mi Calm Calm - N/A   Scattered Clouds
9:34 PM 41.2 °F - 27.9 °F 59% 29.91 in 10.0 mi Calm Calm - N/A   Overcast
9:54 PM 43.0 °F - 27.3 °F 54% 29.90 in 10.0 mi Calm Calm - N/A   Overcast
10:14 PM 45.9 °F 44.6 °F 28.4 °F 51% 29.90 in 10.0 mi South 3.5 mph - N/A   Overcast
10:34 PM 47.3 °F - 27.7 °F 47% 29.90 in 10.0 mi SSW 4.6 mph - N/A   Overcast
10:54 PM 47.3 °F - 28.0 °F 47% 29.89 in 10.0 mi South 4.6 mph - N/A   Overcast
11:14 PM 47.3 °F - 28.6 °F 48% 29.88 in 10.0 mi South 6.9 mph - N/A   Overcast
11:34 PM 47.3 °F - 29.8 °F 51% 29.87 in 10.0 mi South 6.9 mph - N/A   Mostly Cloudy
11:54 PM 47.3 °F - 30.7 °F 53% 29.86 in 10.0 mi South 8.1 mph - N/A   Mostly Cloudy